Frederick, MD

6:07 AM EST on December 16, 2019 (GMT -0500)
Frederick Municipal

Weather History for KFDK - August, 2019

Change the Weather History Date:

Sunday, August 11, 2019

  Actual Average (WUND) Record (WUND)
Temperature  
Mean Temperature 72 °F -  
Max Temperature 86 °F - - (-1)
Min Temperature 59 °F - - (-1)
Cooling Degree Days 8    
Growing Degree Days 22 (Base 50)    
Moisture  
Dew Point 58 °F    
Average Humidity 76    
Maximum Humidity 100    
Minimum Humidity 27    
Precipitation  
Precipitation 0.00 in - - ()
Sea Level Pressure  
Sea Level Pressure 30.06 in    
Wind  
Wind Speed 1 mph (NNE)    
Max Wind Speed 12 mph    
Max Gust Speed -    
Visibility 10 miles    
Events      
Averages and records for this station are not official NWS values.
T = Trace of Precipitation, MM = Missing Value Source: NWS Daily Summary

Daily Weather History Graph

Daily Weather History Graph

Search for Another Location

Airport or City:

Astronomy

Aug. 11, 2019 Rise Set
Actual Time 6:18 AM EDT 8:10 PM EDT
Civil Twilight 5:49 AM EDT 8:39 PM EDT
Nautical Twilight 5:13 AM EDT 9:14 PM EDT
Astronomical Twilight 4:35 AM EDT 9:52 PM EDT
Moon 5:47 PM EDT (8/11) 2:37 AM EDT (8/11)
Length of Visible Light 14h 50m
Length of Day
13h 52m
Waxing Gibbous, 87% of the Moon is Illuminated
Aug 11
Waxing Gibbous
Aug 15
Full
Aug 23
Last Quarter
Aug 30
New
Sep 5
First Quarter

Hourly Weather History & Observations

Time (EDT) Temp. Heat Index Dew Point Humidity Pressure Visibility Wind Dir Wind Speed Gust Speed Precip Events Conditions
12:05 AM 64.4 °F - 60.8 °F 88% 30.02 in 10.0 mi Calm Calm - N/A   Clear
12:25 AM 64.4 °F - 60.8 °F 88% 30.02 in 10.0 mi Calm Calm - N/A   Scattered Clouds
12:45 AM 64.4 °F - 60.8 °F 88% 30.03 in 10.0 mi Calm Calm - N/A   Mostly Cloudy
1:05 AM 64.4 °F - 60.8 °F 88% 30.03 in 10.0 mi Calm Calm - N/A   Overcast
1:25 AM 64.4 °F - 60.8 °F 88% 30.03 in 10.0 mi Calm Calm - N/A   Overcast
1:45 AM 64.4 °F - 62.6 °F 94% 30.03 in 10.0 mi Calm Calm - N/A   Overcast
2:05 AM 64.4 °F - 60.8 °F 88% 30.03 in 10.0 mi Calm Calm - N/A   Mostly Cloudy
2:25 AM 62.6 °F - 60.8 °F 94% 30.03 in 10.0 mi Calm Calm - N/A   Scattered Clouds
2:45 AM 62.6 °F - 60.8 °F 94% 30.03 in 10.0 mi Calm Calm - N/A   Scattered Clouds
3:05 AM 62.6 °F - 60.8 °F 94% 30.03 in 10.0 mi Calm Calm - N/A   Clear
3:25 AM 62.6 °F - 60.8 °F 94% 30.03 in 10.0 mi Calm Calm - N/A   Clear
4:05 AM 60.8 °F - 60.8 °F 100% 30.04 in 10.0 mi Calm Calm - N/A   Scattered Clouds
4:25 AM 60.8 °F - 59.0 °F 94% 30.05 in 10.0 mi Calm Calm - N/A   Scattered Clouds
4:45 AM 60.8 °F - 59.0 °F 94% 30.04 in 10.0 mi Calm Calm - N/A   Scattered Clouds
5:05 AM 60.8 °F - 59.0 °F 94% 30.05 in 7.0 mi Calm Calm - N/A   Clear
5:25 AM 60.8 °F - 59.0 °F 94% 30.05 in 10.0 mi Calm Calm - N/A   Scattered Clouds
5:45 AM 60.8 °F - 59.0 °F 94% 30.06 in 10.0 mi Calm Calm - N/A   Scattered Clouds
6:05 AM 59.0 °F - 59.0 °F 100% 30.07 in 10.0 mi Calm Calm - N/A   Clear
6:25 AM 59.0 °F - 59.0 °F 100% 30.07 in 10.0 mi Calm Calm - N/A   Clear
6:45 AM 59.0 °F - 57.2 °F 94% 30.08 in 10.0 mi Calm Calm - N/A   Clear
6:47 AM 60.8 °F - 59.0 °F 94% 30.09 in 10.0 mi Calm Calm - N/A   Clear
7:05 AM 59.0 °F - 59.0 °F 100% 30.09 in 10.0 mi Calm Calm - N/A   Clear
7:55 AM 64.4 °F - 60.8 °F 88% 30.10 in 10.0 mi Calm Calm - N/A   Clear
8:51 AM 69.8 °F - 57.2 °F 64% 30.11 in 10.0 mi Calm Calm - N/A   Clear
9:49 AM 73.4 °F - 57.2 °F 57% 30.11 in 10.0 mi Calm Calm - N/A   Clear
10:50 AM 77.0 °F - 55.4 °F 47% 30.11 in 10.0 mi NE 4.6 mph - N/A   Partly Cloudy
11:55 AM 80.6 °F 80.5 °F 55.4 °F 42% 30.12 in 10.0 mi North 5.8 mph - N/A   Partly Cloudy
12:47 PM 82.4 °F 81.4 °F 53.6 °F 37% 30.10 in 10.0 mi Calm Calm - N/A   Clear
1:47 PM 82.4 °F - 50.0 °F 32% 30.10 in 10.0 mi North 11.5 mph - N/A   Clear
2:47 PM 82.4 °F - 48.2 °F 30% 30.08 in 10.0 mi NNE 3.5 mph - N/A   Clear
3:47 PM 86.0 °F - 51.8 °F 31% 30.07 in 10.0 mi Variable 4.6 mph - N/A   Clear
4:47 PM 84.2 °F - 46.4 °F 27% 30.05 in 10.0 mi Variable 5.8 mph - N/A   Clear
5:47 PM 84.2 °F - 48.2 °F 29% 30.04 in 10.0 mi North 3.5 mph - N/A   Clear
6:47 PM 82.4 °F - 51.8 °F 35% 30.04 in 10.0 mi NE 3.5 mph - N/A   Clear
7:47 PM 80.6 °F 80.5 °F 55.4 °F 42% 30.04 in 10.0 mi Calm Calm - N/A   Clear
8:47 PM 71.6 °F - 60.8 °F 69% 30.05 in 10.0 mi Calm Calm - N/A   Clear
9:25 PM 69.8 °F - 60.8 °F 73% 30.06 in 10.0 mi Calm Calm - N/A   Clear
9:45 PM 68.0 °F - 60.8 °F 78% 30.05 in 10.0 mi Calm Calm - N/A   Clear
10:05 PM 68.0 °F - 60.8 °F 78% 30.06 in 10.0 mi Calm Calm - N/A   Clear
10:25 PM 64.4 °F - 60.8 °F 88% 30.06 in 10.0 mi Calm Calm - N/A   Clear
10:45 PM 64.4 °F - 59.0 °F 83% 30.06 in 10.0 mi Calm Calm - N/A   Clear
11:05 PM 64.4 °F - 60.8 °F 88% 30.07 in 10.0 mi Calm Calm - N/A   Clear
11:25 PM 64.4 °F - 60.8 °F 88% 30.07 in 10.0 mi Calm Calm - N/A   Clear
11:45 PM 62.6 °F - 60.8 °F 94% 30.07 in 10.0 mi Calm Calm - N/A   Clear